Location: Caltech
(34.1382°N, 118.1253°W)
Time: 08:05:50
(UTC-07:00)

HO-68 - Visible Passes

Search period start: 27 August 2016 00:00
Search period end: 06 September 2016 00:00
Orbit: 1193 x 1204 km, 100.1° (Epoch: 27 August)

Date Brightness Start Highest point End Pass type
(mag) Time Alt. Az. Time Alt. Az. Time Alt. Az.
27 Aug ? 19:44:30 10° SSE 19:51:35 63° ENE 19:58:40 10° N visible
27 Aug ? 21:34:37 10° SW 21:39:40 20° W 21:44:45 10° NW visible
28 Aug ? 21:16:39 10° SSW 21:22:36 28° W 21:28:35 10° NW visible
29 Aug ? 20:59:00 10° SSW 21:05:33 38° W 21:12:09 10° NNW visible
30 Aug ? 20:41:38 10° S 20:48:34 51° W 20:55:32 10° NNW visible
31 Aug ? 20:24:28 10° S 20:31:37 68° WSW 20:38:48 10° NNW visible
01 Sep ? 20:07:30 10° SSE 20:14:42 88° WSW 20:21:56 10° NNW visible
01 Sep ? 22:00:34 10° WSW 22:03:09 12° W 22:05:45 10° WNW visible
02 Sep ? 19:50:41 10° SSE 19:57:50 71° ENE 20:04:59 10° N visible
02 Sep ? 21:41:29 10° SW 21:46:01 18° W 21:50:34 10° NW visible
03 Sep ? 19:34:03 10° SE 19:40:59 54° ENE 19:47:56 10° N visible
03 Sep ? 21:23:18 10° SSW 21:28:55 24° W 21:34:35 10° NW visible
04 Sep ? 21:05:33 10° SSW 21:11:52 33° W 21:18:15 10° NW visible
05 Sep ? 20:48:04 10° S 20:54:52 45° W 21:01:42 10° NNW visible
